Regional Weather Roundup
Issued by NWS Sioux Falls, SD

Home | Current Version | Previous Version | Graphics & Text | Print | Product List | Glossary On
Versions: 1 2 3 4 5 6 7 8 9 10 11 12 13 14 15 16 17 18 19 20 21 22 23 24 25 26 27 28 29 30 31 32 33 34 35 36 37 38 39 40 41 42 43 44 45 46 47 48 49 50
000
ASUS43 KFSD 261102
RWRFSD

WEATHER ROUNDUP FOR SE SOUTH DAKOTA/SW MINNESOTA/NW IOWA
NATIONAL WEATHER SERVICE SIOUX FALLS SD
600 AM CDT SAT JUL 26 2014

NOTE: "FAIR" INDICATES FEW OR NO CLOUDS BELOW 12,000 FEET WITH NO
SIGNIFICANT WEATHER AND OR OBSTRUCTIONS TO VISIBILITY.


SDZ038>040-050-052>070-261200-
SOUTHEAST SOUTH DAKOTA

CITY           SKY/WX    TMP DP  RH WIND       PRES   REMARKS
CHAMBERLAIN    PTCLDY    68  65  92 E6        29.84R
HURON          CLOUDY    69  66  90 SE8       29.79F
MADISON        FAIR      66  66 100 E3        29.87S
MITCHELL       MOCLDY    69  67  93 S9        29.84S THUNDER
SIOUX FALLS    CLOUDY    71  68  90 N8        29.88R
WINNER         PTSUNNY   70  66  87 E5        29.86R
YANKTON        PTCLDY    70  68  94 E3        29.81S
$$

MNZ071-072-080-081-089-090-097-098-261200-
SOUTHWEST MINNESOTA

CITY           SKY/WX    TMP DP  RH WIND       PRES   REMARKS
FAIRMONT       PTCLDY    68  64  88 CALM      29.83F
JACKSON        MOCLDY    70  66  88 NW3       29.87R FOG
LUVERNE        CLOUDY    70  68  94 N6        29.87R FOG
MARSHALL       CLOUDY    66  64  94 S3        29.82F
MONTEVIDEO     CLOUDY    64  64 100 W5        29.84R FOG
PIPESTONE      CLOUDY    70  66  88 E6        29.85R
REDWOOD FALLS  CLOUDY    68  67  96 SW5       29.83R FOG
TRACY          LGT RAIN  69  67  96 N5        29.84F
WINDOM         CLOUDY    68  66  94 NW5       29.87R FOG
WORTHINGTON    CLOUDY    70  66  88 NE7       29.84F
$$

IAZ001>003-012>014-020>022-031-032-NEZ013-014-SDZ071-261200-
NORTHWEST IOWA

CITY           SKY/WX    TMP DP  RH WIND       PRES   REMARKS
CHEROKEE       MOCLDY    68  68 100 NE6       29.82R FOG
DENISON        CLOUDY    70  70 100 SW5       29.81R FOG
ESTHERVILLE    PTCLDY    68  68 100 E3        29.84F FOG
LE MARS        MOCLDY    68  68 100 CALM      29.82S FOG
ORANGE CITY    CLOUDY    72  70  94 E6        29.82S FOG
SHELDON        MOCLDY    70  68  94 E6        29.82S FOG
SIOUX CITY     NOT AVBL
SPENCER        MOCLDY    67  66  97 CALM      29.84F FOG
STORM LAKE     MOCLDY    70  70 100 NE9       29.81F FOG
$$

ABBREVIATIONS USED IN REMARKS
   TC - TEMPERATURE IN CELSIUS
  WCI - WIND CHILL INDEX
   HX - HEAT INDEX
  VSB - VISIBILITY



USA.gov is the U.S. government's official web portal to all federal, state and local government web resources and services.